CW2303 Weather Reports


time (UTC)temp
F
wind
direction
speed
knots
gust
knots
rain 1hr
in
rain 24hr
in
rain mn
in
humidity
%
barometer
mb
20220811234028 84 47 0.0 3.5 0.00 0.00 0.00 46 1019.7
20220811233527 84 46 0.0 0.9 0.00 0.00 0.00 44 1019.7
20220811233048 84 20 0.0 3.5 0.00 0.00 0.00 44 1019.8
20220811232506 84 25 0.0 3.5 0.00 0.00 0.00 42 1019.7
20220811232007 84 20 0.0 3.5 0.00 0.00 0.00 41 1019.7
20220811231527 84 13 0.0 5.2 0.00 0.00 0.00 42 1019.8
20220811231007 85 16 0.0 5.2 0.00 0.00 0.00 40 1019.8
20220811230527 85 57 0.0 2.6 0.00 0.00 0.00 44 1019.8
20220811230048 85 31 0.0 2.6 0.00 0.00 0.00 42 1019.9
20220811225506 85 28 0.0 2.6 0.00 0.00 0.00 45 1019.9
20220811225027 85 43 0.0 2.6 0.00 0.00 0.00 45 1020.0
20220811224506 85 21 0.0 2.6 0.00 0.00 0.00 43 1020.0
20220811224028 86 6 0.0 2.6 0.00 0.00 0.00 44 1020.0
20220811223548 86 31 0.0 2.6 0.00 0.00 0.00 43 1019.9
20220811223027 85 37 0.0 3.5 0.00 0.00 0.00 41 1020.0
20220811222506 86 34 0.0 3.5 0.00 0.00 0.00 44 1019.9
20220811222048 85 11 0.9 5.2 0.00 0.00 0.00 47 1019.9
20220811221506 85 18 0.9 5.2 0.00 0.00 0.00 44 1019.9
20220811221028 85 18 0.9 5.2 0.00 0.00 0.00 41 1019.9
20220811220527 85 6 0.0 3.5 0.00 0.00 0.00 48 1019.9
20220811220006 85 5 0.0 4.3 0.00 0.00 0.00 44 1020.0
20220811215527 85 359 0.9 5.2 0.00 0.00 0.00 40 1020.0
20220811215028 85 3 1.7 7.8 0.00 0.00 0.00 42 1020.0
20220811214506 85 4 0.9 7.8 0.00 0.00 0.00 42 1020.0
20220811214007 85 356 0.9 4.3 0.00 0.00 0.00 42 1020.0
20220811213528 86 13 0.0 4.3 0.00 0.00 0.00 43 1020.0
20220811213007 85 11 0.9 6.1 0.00 0.00 0.00 42 1020.1
20220811212507 85 4 0.9 6.1 0.00 0.00 0.00 43 1020.1
20220811212049 85 353 0.9 6.1 0.00 0.00 0.00 45 1020.1
20220811211506 86 350 0.9 6.1 0.00 0.00 0.00 39 1020.1
20220811211027 86 55 0.9 6.1 0.00 0.00 0.00 43 1020.0
20220811210527 87 77 0.9 6.1 0.00 0.00 0.00 40 1020.1
20220811210006 87 58 0.0 3.5 0.00 0.00 0.00 39 1020.1
20220811205506 86 35 0.0 3.5 0.00 0.00 0.00 40 1020.2
20220811205007 86 27 0.0 3.5 0.00 0.00 0.00 37 1020.3
20220811204551 86 5 0.9 6.1 0.00 0.00 0.00 36 1020.3
20220811204027 85 5 1.7 7.8 0.00 0.00 0.00 37 1020.4
20220811203506 86 135 0.9 7.8 0.00 0.00 0.00 37 1020.3
20220811203009 86 136 0.9 5.2 0.00 0.00 0.00 37 1020.4
20220811202507 86 26 0.0 2.6 0.00 0.00 0.00 38 1020.5
20220811202048 86 351 0.9 4.3 0.00 0.00 0.00 33 1020.5
20220811201551 85 349 0.9 4.3 0.00 0.00 0.00 32 1020.5
20220811201027 86 9 0.0 6.1 0.00 0.00 0.00 39 1020.5
20220811200506 86 6 0.0 6.1 0.00 0.00 0.00 34 1020.5
20220811200009 85 359 0.9 3.5 0.00 0.00 0.00 37 1020.5
20220811195506 85 9 0.9 4.3 0.00 0.00 0.00 36 1020.6
20220811195007 85 10 0.9 6.1 0.00 0.00 0.00 37 1020.6
20220811194508 84 3 1.7 8.7 0.00 0.00 0.00 36 1020.6
20220811194027 84 360 2.6 8.7 0.00 0.00 0.00 36 1020.7
20220811193526 84 360 2.6 8.7 0.00 0.00 0.00 38 1020.7
20220811193051 84 6 0.9 7.8 0.00 0.00 0.00 35 1020.8
20220811192506 85 15 0.9 4.3 0.00 0.00 0.00 35 1020.7
20220811192006 84 25 0.9 7.0 0.00 0.00 0.00 34 1020.8
20220811191550 84 18 0.9 7.8 0.00 0.00 0.00 35 1020.9
20220811191027 84 8 0.9 7.8 0.00 0.00 0.00 38 1021.0
20220811190528 85 17 0.9 4.3 0.00 0.00 0.00 36 1020.9
20220811190030 85 37 0.9 4.3 0.00 0.00 0.00 37 1021.0
20220811185507 84 23 0.9 4.3 0.00 0.00 0.00 35 1021.0
20220811185006 84 17 0.0 3.5 0.00 0.00 0.00 37 1021.0
20220811184508 85 77 0.0 2.6 0.00 0.00 0.00 34 1021.0
20220811184005 84 41 0.9 4.3 0.00 0.00 0.00 36 1021.1
20220811183507 84 34 0.9 4.3 0.00 0.00 0.00 37 1021.2
20220811183009 84 357 0.9 5.2 0.00 0.00 0.00 42 1021.2
20220811182548 83 358 0.9 5.2 0.00 0.00 0.00 36 1021.3
20220811182027 83 32 0.9 4.3 0.00 0.00 0.00 36 1021.4
20220811181530 83 47 0.0 4.3 0.00 0.00 0.00 37 1021.4
20220811181027 83 59 0.0 3.5 0.00 0.00 0.00 41 1021.4
20220811180507 83 35 0.0 3.5 0.00 0.00 0.00 41 1021.4
20220811180009 83 49 0.0 5.2 0.00 0.00 0.00 44 1021.5
20220811175527 82 19 0.0 5.2 0.00 0.00 0.00 41 1021.6
20220811175028 82 5 0.9 5.2 0.00 0.00 0.00 40 1021.6
20220811174530 81 358 2.6 7.0 0.00 0.00 0.00 45 1021.6
20220811174006 81 358 1.7 7.0 0.00 0.00 0.00 45 1021.6
20220811173507 81 3 1.7 8.7 0.00 0.00 0.00 46 1021.7
20220811173008 81 5 0.9 8.7 0.00 0.00 0.00 47 1021.7
20220811172527 81 63 0.0 4.3 0.00 0.00 0.00 50 1021.7
20220811172005 80 49 0.0 4.3 0.00 0.00 0.00 53 1021.8
20220811171509 80 358 0.9 7.0 0.00 0.00 0.00 49 1021.8
20220811171049 80 352 0.9 7.0 0.00 0.00 0.00 50 1021.7
20220811170531 80 13 0.9 5.2 0.00 0.00 0.00 54 1021.8
20220811170008 80 19 0.9 5.2 0.00 0.00 0.00 53 1022.0
20220811165527 80 88 0.0 3.5 0.00 0.00 0.00 56 1022.0
20220811165028 80 66 0.0 3.5 0.00 0.00 0.00 58 1021.9
20220811164509 79 19 0.9 3.5 0.00 0.00 0.00 57 1022.1
20220811164027 79 27 0.9 3.5 0.00 0.00 0.00 55 1022.1
20220811163506 79 128 0.0 3.5 0.00 0.00 0.00 58 1022.1
20220811163027 78 78 0.0 3.5 0.00 0.00 0.00 61 1022.2
20220811162527 78 13 0.9 6.1 0.00 0.00 0.00 62 1022.3
20220811162006 77 10 1.7 6.1 0.00 0.00 0.00 62 1022.3
20220811161509 77 7 0.9 6.1 0.00 0.00 0.00 61 1022.3
20220811161049 77 10 0.9 5.2 0.00 0.00 0.00 61 1022.3
20220811160506 77 360 1.7 5.2 0.00 0.00 0.00 63 1022.4
20220811160029 76 356 1.7 5.2 0.00 0.00 0.00 63 1022.4
20220811155527 77 4 0.9 4.3 0.00 0.00 0.00 61 1022.3
20220811155048 77 21 0.0 3.5 0.00 0.00 0.00 61 1022.4
20220811154508 78 35 0.0 2.6 0.00 0.00 0.00 63 1022.5
20220811154006 77 111 0.0 2.6 0.00 0.00 0.00 62 1022.6
20220811153527 77 142 0.0 2.6 0.00 0.00 0.00 64 1022.6
20220811153051 77 139 0.0 2.6 0.00 0.00 0.00 63 1022.6
20220811152506 77 52 0.0 4.3 0.00 0.00 0.00 60 1022.6
20220811152027 76 93 0.0 4.3 0.00 0.00 0.00 63 1022.6
20220811151529 76 37 0.0 3.5 0.00 0.00 0.00 63 1022.5
20220811151028 76 15 0.0 3.5 0.00 0.00 0.00 64 1022.5
20220811150548 76 38 0.0 3.5 0.00 0.00 0.00 64 1022.5
20220811150009 76 114 0.0 3.5 0.00 0.00 0.00 64 1022.5
20220811145507 76 153 0.9 3.5 0.00 0.00 0.00 64 1022.5
20220811145006 76 156 0.0 3.5 0.00 0.00 0.00 62 1022.6
20220811144529 75 51 0.0 3.5 0.00 0.00 0.00 64 1022.6
20220811144027 75 10 0.0 1.7 0.00 0.00 0.00 63 1022.7
20220811143505 75 77 0.0 0.9 0.00 0.00 0.00 61 1022.8
20220811143030 75 150 0.0 2.6 0.00 0.00 0.00 57 1022.7
20220811142527 74 150 0.0 2.6 0.00 0.00 0.00 52 1022.7
20220811142028 74 149 0.0 1.7 0.00 0.00 0.00 56 1022.7
20220811141508 74 149 0.0 1.7 0.00 0.00 0.00 50 1022.7
20220811141006 73 143 0.0 0.9 0.00 0.00 0.00 50 1022.8
20220811140506 72 158 0.0 0.9 0.00 0.00 0.00 27 1022.7
20220811140027 72 152 0.0 1.7 0.00 0.00 0.00 34 1022.7
20220811135549 71 146 0.0 1.7 0.00 0.00 0.00 20 1022.6
20220811135007 70 145 0.0 2.6 0.00 0.00 0.00 5 1022.6
20220811134527 70 146 0.0 2.6 0.00 0.00 0.00 1 1022.6
20220811134006 69 124 0.0 0.9 0.00 0.00 0.00 1 1022.6
20220811133527 69 125 0.0 0.9 0.00 0.00 0.00 1 1022.6
20220811133027 68 127 0.0 0.9 0.00 0.00 0.00 1 1022.6
20220811132506 68 134 0.0 0.9 0.00 0.00 0.00 1 1022.5
20220811132027 68 135 0.0 3.5 0.00 0.00 0.00 1 1022.5
20220811131506 67 135 0.0 3.5 0.00 0.00 0.00 1 1022.4
20220811131005 67 113 0.0 0.9 0.00 0.00 0.00 1 1022.4
20220811130506 66 118 0.0 1.7 0.00 0.00 0.00 1 1022.3
20220811130027 66 119 0.0 1.7 0.00 0.00 0.00 1 1022.3
20220811125548 66 0 0.0 0.0 0.00 0.00 0.00 1 1022.4
20220811125006 65 123 0.0 0.9 0.00 0.00 0.00 1 1022.3
20220811124506 65 123 0.0 0.9 0.00 0.00 0.00 1 1022.3
20220811124027 64 0 0.0 0.0 0.00 0.00 0.00 1 1022.2
20220811123548 64 0 0.0 0.0 0.00 0.00 0.00 1 1022.1
20220811123006 64 0 0.0 0.9 0.00 0.00 0.00 1 1022.0
20220811122507 64 0 0.0 0.9 0.00 0.00 0.00 1 1022.0
20220811122048 63 0 0.0 0.0 0.00 0.00 0.00 1 1022.1
20220811121506 63 0 0.0 0.0 0.00 0.00 0.00 1 1022.0
20220811121006 63 0 0.0 0.0 0.00 0.00 0.00 1 1022.0
20220811120506 63 0 0.0 0.0 0.00 0.00 0.00 1 1022.0
20220811120007 63 0 0.0 0.9 0.00 0.00 0.00 1 1021.9
20220811115506 63 0 0.0 0.9 0.00 0.00 0.00 1 1021.8
20220811115027 63 0 0.0 0.9 0.00 0.00 0.00 1 1021.9
20220811114526 63 0 0.0 0.0 0.00 0.00 0.00 1 1021.6
20220811114006 63 0 0.0 0.0 0.00 0.00 0.00 1 1021.6
20220811104551 63 0 0.0 0.0 0.00 0.00 0.00 1 1020.8
20220811104031 63 0 0.0 0.0 0.00 0.00 0.00 1 1020.9
20220811103508 64 0 0.0 0.0 0.00 0.00 0.00 1 1020.8
20220811103027 64 0 0.0 0.0 0.00 0.00 0.00 1 1020.8
20220811102527 64 0 0.0 0.0 0.00 0.00 0.00 1 1020.8
20220811102026 64 0 0.0 0.0 0.00 0.00 0.00 1 1020.9
20220811101548 64 0 0.0 0.0 0.00 0.00 0.00 1 1020.9
20220811101006 64 0 0.0 0.0 0.00 0.00 0.00 1 1020.9
20220811100506 64 0 0.0 0.0 0.00 0.00 0.00 1 1020.9
20220811100006 64 0 0.0 0.0 0.00 0.00 0.00 1 1020.9
20220811095506 64 0 0.0 0.0 0.00 0.00 0.00 1 1020.8
20220811095006 64 0 0.0 0.9 0.00 0.00 0.00 1 1021.0
20220811094527 64 0 0.0 0.9 0.00 0.00 0.00 1 1020.9
20220811094027 64 0 0.0 0.0 0.00 0.00 0.00 1 1020.9
20220811093506 64 0 0.0 0.0 0.00 0.00 0.00 1 1020.9
20220811093009 64 0 0.0 0.9 0.00 0.00 0.00 1 1020.9
20220811092506 64 0 0.0 0.9 0.00 0.00 0.00 1 1021.0
20220811092005 64 0 0.0 0.0 0.00 0.00 0.00 1 1021.0
20220811091509 65 0 0.0 0.0 0.00 0.00 0.00 1 1020.9
20220811091006 65 124 0.0 1.7 0.00 0.00 0.00 1 1020.9
20220811090548 65 119 0.0 1.7 0.00 0.00 0.00 1 1021.0
20220811090050 65 68 0.0 0.9 0.00 0.00 0.00 1 1021.0
20220811085527 65 0 0.0 0.0 0.00 0.00 0.00 1 1021.0
20220811085005 65 0 0.0 0.0 0.00 0.00 0.00 1 1020.9
20220811084509 65 0 0.0 0.0 0.00 0.00 0.00 1 1021.0
20220811084048 66 0 0.0 0.0 0.00 0.00 0.00 1 1021.1
20220811083506 66 35 0.0 1.7 0.00 0.00 0.00 1 1021.1
20220811083008 66 35 0.0 1.7 0.00 0.00 0.00 1 1021.1
20220811082506 66 0 0.0 0.0 0.00 0.00 0.00 1 1021.2
20220811082005 66 0 0.0 0.0 0.00 0.00 0.00 1 1021.3
20220811081551 66 61 0.0 0.9 0.00 0.00 0.00 1 1021.3
20220811081048 66 61 0.0 0.9 0.00 0.00 0.00 1 1021.3
20220811080506 66 0 0.0 0.0 0.00 0.00 0.00 1 1021.3
20220811080030 65 0 0.0 0.0 0.00 0.00 0.00 1 1021.3
20220811075506 65 0 0.0 0.0 0.00 0.00 0.00 1 1021.3
20220811075005 65 0 0.0 0.0 0.00 0.00 0.00 1 1021.3
20220811074509 65 3 0.0 0.9 0.00 0.00 0.00 1 1021.3
20220811074006 65 3 0.0 0.9 0.00 0.00 0.00 1 1021.3
20220811073506 65 0 0.0 0.0 0.00 0.00 0.00 1 1021.3
20220811073030 65 0 0.0 0.0 0.00 0.00 0.00 1 1021.3
20220811072527 65 0 0.0 0.0 0.00 0.00 0.00 1 1021.3
20220811072047 65 0 0.0 0.0 0.00 0.00 0.00 1 1021.3
20220811071509 65 0 0.0 0.0 0.00 0.00 0.00 1 1021.3
20220811071006 65 0 0.0 0.0 0.00 0.00 0.00 1 1021.3
20220811070527 65 0 0.0 0.0 0.00 0.00 0.00 1 1021.4
20220811070029 65 0 0.0 0.0 0.00 0.00 0.00 1 1021.4
20220811065505 65 0 0.0 0.0 0.00 0.00 0.00 1 1021.4
20220811065049 66 0 0.0 0.0 0.00 0.00 0.00 1 1021.5
20220811064509 66 0 0.0 0.0 0.00 0.00 0.00 1 1021.5
20220811064028 66 0 0.0 0.0 0.00 0.00 0.00 1 1021.6
20220811063506 66 0 0.0 0.0 0.00 0.00 0.00 1 1021.6
20220811063029 67 0 0.0 0.0 0.00 0.00 0.00 1 1021.5
20220811062505 67 0 0.0 0.0 0.00 0.00 0.00 1 1021.7
20220811062005 67 0 0.0 0.0 0.00 0.00 0.00 1 1021.6
20220811061552 67 0 0.0 0.0 0.00 0.00 0.00 1 1021.6
20220811061006 67 0 0.0 0.0 0.00 0.00 0.00 1 1021.6
20220811060506 67 0 0.0 0.0 0.00 0.00 0.00 1 1021.7
20220811060009 67 0 0.0 0.0 0.00 0.00 0.00 1 1021.7
20220811055527 66 21 0.0 0.9 0.00 0.00 0.00 1 1021.8
20220811055005 66 21 0.0 0.9 0.00 0.00 0.00 1 1021.8
20220811054551 66 0 0.0 0.0 0.00 0.00 0.00 1 1021.8
20220811054006 67 0 0.0 0.0 0.00 0.00 0.00 1 1021.8
20220811053528 67 0 0.0 0.0 0.00 0.00 0.00 1 1021.8
20220811053050 67 0 0.0 0.0 0.00 0.00 0.00 1 1021.8
20220811052548 67 0 0.0 0.0 0.00 0.00 0.00 1 1021.8
20220811052006 68 0 0.0 0.0 0.00 0.00 0.00 3 1021.8
20220811051509 68 42 0.0 1.7 0.00 0.00 0.00 8 1021.7
20220811051006 68 42 0.0 1.7 0.00 0.00 0.00 9 1021.6
20220811050548 68 0 0.0 0.0 0.00 0.00 0.00 10 1021.6
20220811050030 68 0 0.0 0.0 0.00 0.00 0.00 10 1021.6
20220811045527 68 0 0.0 0.0 0.00 0.00 0.00 11 1021.7
20220811045005 68 57 0.0 0.9 0.00 0.00 0.00 14 1021.7
20220811044509 68 56 0.0 0.9 0.00 0.00 0.00 16 1021.7
20220811044006 68 16 0.0 0.9 0.00 0.00 0.00 19 1021.7
20220811043528 68 357 0.0 0.9 0.00 0.00 0.00 21 1021.8
20220811043008 68 0 0.0 0.0 0.00 0.00 0.00 20 1021.8
20220811042505 68 0 0.0 0.0 0.00 0.00 0.00 23 1021.8
20220811042005 69 0 0.0 0.0 0.00 0.00 0.00 26 1021.7
20220811041509 69 0 0.0 0.0 0.00 0.00 0.00 29 1021.7
20220811041027 69 0 0.0 0.0 0.00 0.00 0.00 30 1021.7
20220811040527 69 0 0.0 0.0 0.00 0.00 0.00 30 1021.7
20220811040009 69 356 0.0 0.9 0.00 0.00 0.00 33 1021.6
20220811035526 70 356 0.0 0.9 0.00 0.00 0.00 36 1021.6
20220811035005 70 0 0.0 0.0 0.00 0.00 0.00 37 1021.6
20220811034509 70 0 0.0 0.0 0.00 0.00 0.00 39 1021.7
20220811034006 70 0 0.0 0.0 0.00 0.00 0.00 40 1021.6
20220811033506 70 0 0.0 0.0 0.00 0.00 0.00 42 1021.6
20220811033029 70 0 0.0 0.0 0.00 0.00 0.00 44 1021.7
20220811032548 71 354 0.0 0.9 0.00 0.00 0.00 46 1021.8
20220811032027 71 354 0.0 0.9 0.00 0.00 0.00 48 1021.7
20220811031509 71 354 0.0 0.9 0.00 0.00 0.00 51 1021.7
20220811031048 72 354 0.0 1.7 0.00 0.00 0.00 52 1021.6
20220811030527 72 4 0.0 3.5 0.00 0.00 0.00 52 1021.6
20220811030029 72 10 0.0 3.5 0.00 0.00 0.00 53 1021.6
20220811025527 72 19 0.0 2.6 0.00 0.00 0.00 55 1021.6
20220811025048 72 20 0.0 2.6 0.00 0.00 0.00 57 1021.5
20220811024551 73 20 0.0 0.9 0.00 0.00 0.00 58 1021.4
20220811024006 73 6 0.0 3.5 0.00 0.00 0.00 58 1021.4
20220811023506 73 6 0.9 3.5 0.00 0.00 0.00 58 1021.4
20220811023050 73 5 0.0 3.5 0.00 0.00 0.00 59 1021.3
20220811022506 73 3 0.0 3.5 0.00 0.00 0.00 59 1021.2
20220811022027 73 360 0.0 3.5 0.00 0.00 0.00 60 1021.1
20220811021529 73 4 0.0 3.5 0.00 0.00 0.00 60 1020.9
20220811021006 74 13 0.0 2.6 0.00 0.00 0.00 61 1020.8
20220811020527 74 16 0.0 3.5 0.00 0.00 0.00 62 1020.9
20220811020029 74 10 0.0 3.5 0.00 0.00 0.00 62 1020.9
20220811015526 74 10 0.0 3.5 0.00 0.00 0.00 63 1020.8
20220811015026 74 7 0.9 3.5 0.00 0.00 0.00 63 1020.8
20220811014509 74 359 0.9 3.5 0.00 0.00 0.00 63 1020.6
20220811014006 74 360 0.9 2.6 0.00 0.00 0.00 63 1020.6
20220811013527 75 6 0.9 3.5 0.00 0.00 0.00 63 1020.5
20220811013008 75 4 0.9 3.5 0.00 0.00 0.00 64 1020.4
20220811012505 75 360 0.9 3.5 0.00 0.00 0.00 64 1020.3
20220811012006 76 3 0.9 4.3 0.00 0.00 0.00 64 1020.2
20220811011551 76 3 1.7 5.2 0.00 0.00 0.00 64 1020.2
20220811011006 76 360 1.7 5.2 0.00 0.00 0.00 64 1020.2
20220811010506 76 358 0.9 5.2 0.00 0.00 0.00 64 1020.2
20220811010029 77 360 0.9 4.3 0.00 0.00 0.00 64 1020.0
20220811005527 77 4 0.9 4.3 0.00 0.00 0.00 64 1020.1
20220811005049 78 5 1.7 4.3 0.00 0.00 0.00 63 1020.0
20220811004529 78 4 1.7 5.2 0.00 0.00 0.00 63 1019.9
20220811004006 78 2 1.7 5.2 0.00 0.00 0.00 63 1019.9
20220811003506 78 1 0.9 4.3 0.00 0.00 0.00 63 1019.8
20220811003050 79 1 1.7 4.3 0.00 0.00 0.00 63 1019.7
20220811002527 79 357 1.7 6.1 0.00 0.00 0.00 63 1019.7
20220811002006 79 359 1.7 6.1 0.00 0.00 0.00 61 1019.8
20220811001506 80 2 1.7 5.2 0.00 0.00 0.00 61 1019.7
20220811001027 80 1 2.6 8.7 0.00 0.00 0.00 60 1019.7
20220811000548 80 5 1.7 8.7 0.00 0.00 0.00 60 1019.6
20220811000050 80 6 1.7 7.0 0.00 0.00 0.00 61 1019.6
20220810235548 81 360 1.7 7.0 0.00 0.00 0.00 60 1019.5
20220810235027 81 358 1.7 7.8 0.00 0.00 0.00 60 1019.5
20220810234527 81 2 1.7 7.8 0.00 0.00 0.00 59 1019.6